sat.trackr.live / text

‹ back to catalog

STARLINK-34002

NORAD 63856 · 2025-093W

PAYLOAD ACTIVE UNKNOWN

§ Identity

Operator
Country
US
Launch date
2025-05-07
Launch site
AFETR
Launch vehicle
Mass (kg)
RCS (m²)

Purposes: comms

External: N2YO · Heavens-Above · Gunter

§ Orbital elements

Epoch: 2026-05-24T22:39:47.685024Z

Period
94.27 min
Inclination
43.0056°
Eccentricity
0.0001686
Mean motion
15.27598747 rev/d
Perigee alt
481.8 km
Apogee alt
484.1 km
Semi-major
6,861.1 km
B*
6.6510e-4
RAAN
7.2950°
Arg perigee
232.7795°
Mean anomaly
127.2903°
Rev number
5,941

§ Raw data

STARLINK-340021 63856U 25093W   26144.94430191  .00018095  00000+0  66510-3 0  99982 63856  43.0056   7.2950 0001686 232.7795 127.2903 15.27598747 59415

JSON: /api/v1/satellites/63856 · /tle

For live sub-satellite position, see the globe view (requires WebGL).

§ Visibility from observer

Set your observer location to see the next 7 days of passes ≥ 10°. The values pass through the URL so the page stays shareable.

No JS? Fill the form by hand. The geolocation button needs JavaScript.